Location: Caltech
(34.1382°N, 118.1253°W)
Time: 03:49:26
(UTC-07:00)

Iridium 91 - Visible Passes

Search period start: 23 September 2017 00:00
Search period end: 03 October 2017 00:00
Orbit: 775 x 779 km, 86.4° (Epoch: 23 September)

Date Brightness Start Highest point End Pass type
(mag) Time Alt. Az. Time Alt. Az. Time Alt. Az.
23 Sep 5.8 04:39:01 10° N 04:44:13 67° E 04:49:23 10° S visible
24 Sep 7.0 04:05:53 10° NNE 04:10:36 34° E 04:15:18 10° SSE visible
24 Sep 6.7 05:47:08 10° NW 05:51:02 22° W 05:54:56 10° SW visible
25 Sep 8.0 03:33:22 10° NE 03:36:52 18° E 03:40:21 10° ESE visible
25 Sep 5.8 05:12:51 10° NNW 05:17:43 41° W 05:21:24 17° SSW visible
26 Sep 5.3 04:39:05 10° N 04:44:18 82° W 04:45:25 56° SSW visible
27 Sep 6.3 04:05:41 10° N 04:10:19 49° ENE 04:10:19 49° ENE visible
27 Sep 7.1 05:48:12 10° NW 05:50:41 14° WNW 05:50:41 14° WNW visible
28 Sep 7.6 03:32:45 10° NNE 03:35:36 23° NE 03:35:36 23° NE visible
28 Sep 6.8 05:13:20 10° NNW 05:16:00 23° NW 05:16:00 23° NW visible
29 Sep 8.5 03:00:44 10° NE 03:01:08 11° NE 03:01:08 11° NE visible
29 Sep 6.9 04:39:17 10° NNW 04:41:31 25° NNW 04:41:31 25° NNW visible
30 Sep 7.5 04:05:40 10° N 04:07:12 20° N 04:07:12 20° N visible
01 Oct 8.2 03:32:26 10° NNE 03:32:59 13° NNE 03:32:59 13° NNE visible
